Location: Aufkirchen
(47.9603°N, 11.3653°E)
Time: 08:20:13
(UTC+01:00)

Transit 2A - Pass Details

Date: 27 November 2020
Orbit: 598 x 960 km, 66.7° (Epoch: 16 January)

Event Time Altitude Azimuth Distance (km) Brightness Sun altitude
Rises 19:15:12 0° 239° (WSW) 3,625 10.4 -27.7°
Reaches altitude 10° 19:17:58 10° 246° (WSW) 2,664 9.6 -28.2°
Maximum altitude 19:23:50 41° 315° (NW) 1,304 7.4 -29.1°
Enters shadow 19:25:55 31° 358° (N) 1,525 7.5 -29.5°
Drops below altitude 10° 19:29:22 10° 25° (NNE) 2,510 - -30.1°
Sets 19:31:55 0° 33° (NNE) 3,395 - -30.5°
